Flag for U.S.A. Weather past 2 weeks in Lancaster, California, U.S.A.

Now
32 °F

Sunny.


Feels Like: 32 °F
Forecast: 28 / 54 °F
Wind: No wind

Location: Lancaster / Fox Field

Current Time: Dec 28, 2014 at 10:06:28 AM

Latest Report: Dec 28, 2014 at 8:56 AM


Visibility: 10 mi

Pressure: 30.37 "Hg

Humidity: 66%

Dew point: 22 °F

Location of LancasterLocation

Historic Weather in Lancaster — Graph

°F

Lancaster temperature yesterday

Maximum temperature yesterday: 47 °F (at 1:56 PM)
Minimum temperature yesterday: 22 °F (at 4:56 AM)
Average temperature yesterday: 33 °F

Past Weeks' High & Low Weather Summary

 TemperatureHumidityPressure
High67 °F (Dec 23, 1:56 PM)100% (Dec 17, 1:56 AM)30.48 "Hg (Dec 17, 1:56 AM)
Low22 °F (Dec 27, 4:56 AM)24% (Dec 27, 2:56 PM)29.78 "Hg (Dec 25, 2:56 AM)
Average44 °F73%30.15 "Hg
* Reported Dec 13 8:56 AM — Dec 28 8:56 AM, Lancaster, Weather by CustomWeather, © 2014

Note: Actual official high and low records may vary slightly from our data, if they occured in-between our weather recording intervals... More about our weather records

Advertising

Lancaster weather history for previous 24 hours

 ConditionsComfort  
Time TempWeatherWind HumidityBarometerVisibility
8:56 AM
Dec 28
32 °FSunny.No wind66%30.37 "Hg10 mi
7:56 AM29 °FSunny.No wind75%30.37 "Hg10 mi
6:56 AM26 °FClear.3 mph81%30.36 "Hg10 mi
5:56 AM25 °FClear.3 mph85%30.35 "Hg10 mi
4:56 AM24 °FClear.3 mph84%30.34 "Hg10 mi
3:56 AM24 °FClear.No wind84%30.34 "Hg10 mi
2:56 AM25 °FClear.3 mph81%30.35 "Hg10 mi
1:56 AM27 °FClear.3 mph75%30.36 "Hg10 mi
12:56 AM25 °FClear.5 mph78%30.37 "Hg10 mi
11:56 PM
Dec 27
26 °FClear.5 mph77%30.37 "Hg10 mi
10:56 PM26 °FClear.3 mph81%30.40 "Hg10 mi
9:56 PM31 °FClear.No wind67%30.40 "Hg10 mi
8:56 PM31 °FClear.3 mph64%30.42 "Hg10 mi
7:56 PM30 °FClear.6 mph69%30.44 "Hg10 mi
6:56 PM31 °FClear.6 mph67%30.43 "Hg10 mi
5:56 PM36 °FClear.3 mph50%30.42 "Hg10 mi
4:56 PM41 °FClear.3 mph38%30.40 "Hg10 mi
3:56 PM46 °FSunny.5 mph25%30.39 "Hg10 mi
2:56 PM47 °FSunny.9 mph24%30.39 "Hg10 mi
1:56 PM47 °FSunny.9 mph26%30.40 "Hg10 mi
12:56 PM46 °FSunny.12 mph25%30.40 "Hg10 mi
11:56 AM46 °FSunny.10 mph27%30.43 "Hg10 mi
10:56 AM44 °FSunny.8 mph32%30.46 "Hg10 mi
Weather by CustomWeather, © 2014

See weather overviewHow to use our weather pages